Hourly Data Report for September 08, 2017

All times are specified in Local Standard Time (LST). Add 1 hour to adjust for Daylight Saving Time where and when it is observed.

SAINT JOHN A
NEW BRUNSWICK

45°18'58.000" N
65°53'24.000" W
108.80 m
8104901
71609
YSJ

Download Data

Hourly Data (September 2017)
Hourly Data Report for September 8, 2017
Temp Definition
°C
Dew Point Temp Definition
°C
Rel Hum Definition
%
Wind Dir Definition
10's deg

Wind Spd Definition
km/h
Visibility Definition
km
Stn Press Definition
kPa
Hmdx Definition


Wind Chill Definition


Weather Definition


TIME
00:00 Legend Double Dagger 13.6 13.5 100 21 9 0.8 99.78     Fog
01:00 Legend Double Dagger 13.5 13.5 100 22 13 0.8 99.78     Fog
02:00 Legend Double Dagger 13.5 13.4 100 21 11 0.8 99.80     Fog
03:00 Legend Double Dagger 13.3 13.3 100 22 9 0.8 99.82     Fog
04:00 Legend Double Dagger 13.2 13.1 100 21 4 0.8 99.81     Fog
05:00 Legend Double Dagger 13.0 12.9 100 18 10 0.8 99.81     Fog
06:00 Legend Double Dagger 12.8 12.8 100 24 9 0.8 99.96     Fog
07:00 Legend Double Dagger 13.2 13.1 99 26 7 2.4 100.05     Fog
08:00 Legend Double Dagger 14.1 13.5 96 24 5 4.8 100.11     Fog
09:00 Legend Double Dagger 16.2 14.2 88 20 4 9.7 100.18     Fog
10:00 Legend Double Dagger 16.2 14.2 88 20 13 8.1 100.22     Fog
11:00 Legend Double Dagger 15.7 14.0 89 20 14 9.7 100.28     Fog
12:00 Legend Double Dagger 15.8 13.8 88 20 14 9.7 100.27     Fog
13:00 Legend Double Dagger 18.0 14.1 78 19 20 19.3 100.27     LegendNANA
14:00 Legend Double Dagger 18.9 12.7 67 20 22 24.1 100.30     Mainly Clear
15:00 Legend Double Dagger 19.3 12.3 63 22 21 24.1 100.34     LegendNANA
16:00 Legend Double Dagger 18.6 11.9 64 20 21 24.1 100.36     LegendNANA
17:00 Legend Double Dagger 17.1 12.1 72 21 19 24.1 100.39     Mainly Clear
18:00 Legend Double Dagger 14.6 12.2 85 22 14 24.1 100.40     LegendNANA
19:00 Legend Double Dagger 12.5 11.6 94 20 4 24.1 100.44     LegendNANA
20:00 Legend Double Dagger 11.6 11.1 97 21 5 24.1 100.52     Mainly Clear
21:00 Legend Double Dagger 11.7 10.7 94 17 6 24.1 100.55     LegendNANA
22:00 Legend Double Dagger 8.8 8.6 98 3 3 24.1 100.58     LegendNANA
23:00 Legend Double Dagger 8.5 8.2 98 36 2 1.6 100.59     Fog

Notes on Data Quality.

Legend

  • E = Estimated
  • M = Missing
  • NA = Not Available
  • ‡ = Partner data that is not subject to review by the National Climate Archives
Date modified: